Regional Weather Roundup
Issued by NWS Northern Indiana

Home | Current Version | Previous Version | Graphics & Text | Print | Product List | Glossary On
Versions: 1 2 3 4 5 6 7 8 9 10 11 12 13 14 15 16 17 18 19 20 21 22 23 24 25 26 27 28 29 30 31 32 33 34 35 36 37 38 39 40 41 42 43 44 45 46 47 48 49 50
000
ASUS43 KIWX 200801
RWRIWX

KIWX WEATHER ROUNDUP
NATIONAL WEATHER SERVICE NORTHERN INDIANA
400 AM EDT FRI OCT 20 2017

NOTE: "FAIR" INDICATES FEW OR NO CLOUDS BELOW 12,000 FEET WITH NO
SIGNIFICANT WEATHER AND/OR OBSTRUCTIONS TO VISIBILITY.

* THESE STATIONS ARE NOT UNDER NWS QUALITY CONTROL. THEY ALSO MAY NOT
  REPORT WEATHER SUCH AS PRECIPITATION OR FOG.

INZ001>027-200900-
NORTHERN INDIANA

CITY           SKY/WX    TMP DP  RH WIND       PRES   REMARKS
KNOX*          FAIR      48  41  76 SE6       30.19S
SOUTH BEND     FAIR      49  37  63 SE5       30.20S
GOSHEN         FAIR      44  38  79 CALM      30.21R
MONTICELLO*    FAIR      49  48  95 CALM      30.19S
FORT WAYNE     FAIR      47  43  86 CALM      30.23S
PERU/GRISSOM   FAIR      51  50  95 SE3       30.21R

$$
INZ028>050-200900-
CENTRAL INDIANA

CITY           SKY/WX    TMP DP  RH WIND       PRES   REMARKS
LAFAYETTE      FAIR      49  49 100 CALM      30.20S
KOKOMO*        FAIR      48  47  96 CALM      30.22S
MUNCIE*        FAIR      46  44  93 S3        30.23S
INDIANAPOLIS   FAIR      54  50  86 S5        30.23S

$$
MIZ043>046-050>051-056>058-064>065-071>073-077>080-200900-
SOUTHWEST LOWER MICHIGAN

CITY           SKY/WX    TMP DP  RH WIND       PRES   REMARKS
BATTLE CREEK   FAIR      42  38  85 S6        30.20F
BENTON HARBOR  FAIR      48  35  60 SE3       30.17F
COLDWATER*     FAIR      40  39  94 CALM      30.21S
HILLSDALE*     FAIR      43  32  65 CALM      30.21S
HOLLAND        FAIR      45  34  65 S5        30.18S
GRAND RAPIDS   FAIR      43  37  79 S3        30.18S
KALAMAZOO      FAIR      43  38  82 S3        30.20S
STURGIS*       FAIR      43  36  74 CALM      30.20S
THREE RIVERS*  FAIR      42  40  91 CALM      30.21S

$$
OHZ001>008-015>018-024>025-200900-
NORTHWEST OHIO

CITY           SKY/WX    TMP DP  RH WIND       PRES   REMARKS
DEFIANCE       FAIR      42  38  85 SW5       30.23R
FINDLAY        FAIR      42  38  85 S6        30.23R
TOLEDO EXPRESS FAIR      41  38  89 CALM      30.21S
TOLEDO METCALF FAIR      45  37  73 CALM      30.22S
LIMA           FAIR      46  45  96 CALM      30.23S FOG

$$
AND FOR LAKE MICHIGAN COASTAL AND OPEN LAKE BUOY OBSERVATIONS

STATION/POSITION TEMP    WIND        PRES    VSBY  WAVE
                 AIR SEA DIR/SP/G                  HT/PER
                 (F)     (DEG/KT/KT) (MB)    (MI)  (FT/S)
CALUMET HARBOR    57     180/  6/  8 1020.5R
MICHIGAN CITY     58     140/ 13/ 15   N/A
BURNS HARBOR      59     180/  8/ 10 1021.7S
SAINT JOSEPH      51     130/  2/  6 1022.4
SOUTH LAKE BUOY   62 60  140/ 12/ 14 1020.8          1/ 3
4 MI NW BRIDGMAN  59 58  170/ 10/ 14 1021.9S         1/ 2
MICHIGAN CITY     58 58  180/ 10/ 14   N/A           1/ 2

$$
&&




USA.gov is the U.S. government's official web portal to all federal, state and local government web resources and services.